User: anonymous   Login
Location: Potawatomi Wildlife Park
(41.2308°N, 86.1050°W)
Time: 03:22:30
(UTC-04:00)
Language:

SL-16 R/B - Orbit

View from above orbital plane
View from above orbital plane
View from above satellite
View from above satellite

Ground track
Ground track

The orbit data is extracted from the following two-line orbital elements,

1 27006U 01056F   17262.95801837 -.00000048 +00000-0 -54271-5 0  9994
2 27006 099.3288 041.2802 0015390 064.6230 041.3523 13.70968935789397
Epoch (UTC): 19 September 2017 22:59:32
Eccentricity: 0.0015390
inclination: 99.3288°
perigee height: 985 km
apogee height: 1007 km
right ascension of ascending node: 41.2802°
argument of perigee: 64.6230°
revolutions per day: 13.70968935
mean anomaly at epoch: 41.3523°
orbit number at epoch: 78939

The dashed part of the orbit path shows where the satellite is in the earth's shadow,  

DLR